Вернуться в каталог

STARLINK-33915

АктивенСвязьVLEO
NORAD 63708·PAYLOAD·🇺🇸 United States

Запущен Apr 28, 2025 с Vandenberg Space Force Base

Loading…

Ближайшие Пролёты (ближайшие 24 часа)

TLE

СвежийSource: CelesTrak SupGP

Эпоха: Sep 15, 2026, 02:35 UTC

1 63708C 25087M   26258.10812500 -.00022491  00000+0 -66467-3 0  2585
2 63708  53.1591  58.6138 0001332  88.9501   2.2231 15.34393752    14

Отслеживайте STARLINK-33915 в реальном времени с AllMySat

Download on the App Store